Year,Month,Day,Hour,Minute,Value (Times are PST for temperature in C)
2014,08,20,00,00,16.80
2014,08,20,00,01,16.80
2014,08,20,00,02,16.80
2014,08,20,00,03,16.80
2014,08,20,00,04,16.80
2014,08,20,00,05,16.80
2014,08,20,00,06,16.80
2014,08,20,00,07,16.80
2014,08,20,00,08,16.80
2014,08,20,00,09,16.80
2014,08,20,00,10,16.80
2014,08,20,00,11,16.80
2014,08,20,00,12,16.80
2014,08,20,00,13,16.90
2014,08,20,00,14,16.90
2014,08,20,00,15,16.90
2014,08,20,00,16,16.90
2014,08,20,00,17,16.90
2014,08,20,00,18,16.90
2014,08,20,00,19,16.90
2014,08,20,00,20,16.90
2014,08,20,00,21,16.90
2014,08,20,00,22,16.90
2014,08,20,00,23,16.90
2014,08,20,00,24,16.90
2014,08,20,00,25,16.90
2014,08,20,00,26,16.90
2014,08,20,00,27,16.80
2014,08,20,00,28,16.80
2014,08,20,00,29,16.80
2014,08,20,00,30,16.80
2014,08,20,00,31,16.80
2014,08,20,00,32,16.80
2014,08,20,00,33,16.80
2014,08,20,00,34,16.80
2014,08,20,00,35,16.80
2014,08,20,00,36,16.70
2014,08,20,00,37,16.70
2014,08,20,00,38,16.70
2014,08,20,00,39,16.70
2014,08,20,00,40,16.70
2014,08,20,00,41,16.70
2014,08,20,00,42,16.70
2014,08,20,00,43,16.70
2014,08,20,00,44,16.70
2014,08,20,00,45,16.70
2014,08,20,00,46,16.70
2014,08,20,00,47,16.70
2014,08,20,00,48,16.70
2014,08,20,00,49,16.70
2014,08,20,00,50,16.70
2014,08,20,00,51,16.70
2014,08,20,00,52,16.70
2014,08,20,00,53,16.70
2014,08,20,00,54,16.70
2014,08,20,00,55,16.70
2014,08,20,00,56,16.70
2014,08,20,00,57,16.70
2014,08,20,00,58,16.70
2014,08,20,00,59,16.70
2014,08,20,01,00,16.70
2014,08,20,01,01,16.70
2014,08,20,01,02,16.70
2014,08,20,01,03,16.70
2014,08,20,01,04,16.70
2014,08,20,01,05,16.70
2014,08,20,01,06,16.70
2014,08,20,01,07,16.70
2014,08,20,01,08,16.70
2014,08,20,01,09,16.70
2014,08,20,01,10,16.70
2014,08,20,01,11,16.70
2014,08,20,01,12,16.70
2014,08,20,01,13,16.70
2014,08,20,01,14,16.60
2014,08,20,01,15,16.60
2014,08,20,01,16,16.60
2014,08,20,01,17,16.60
2014,08,20,01,18,16.60
2014,08,20,01,19,16.60
2014,08,20,01,20,16.60
2014,08,20,01,21,16.60
2014,08,20,01,22,16.60
2014,08,20,01,23,16.60
2014,08,20,01,24,16.60
2014,08,20,01,25,16.60
2014,08,20,01,26,16.60
2014,08,20,01,27,16.60
2014,08,20,01,28,16.60
2014,08,20,01,29,16.60
2014,08,20,01,30,16.60
2014,08,20,01,31,16.60
2014,08,20,01,32,16.60
2014,08,20,01,33,16.60
2014,08,20,01,34,16.60
2014,08,20,01,35,16.60
2014,08,20,01,36,16.60
2014,08,20,01,37,16.60
2014,08,20,01,38,16.60
2014,08,20,01,39,16.60
2014,08,20,01,40,16.60
2014,08,20,01,41,16.60
2014,08,20,01,42,16.60
2014,08,20,01,43,16.60
2014,08,20,01,44,16.50
2014,08,20,01,45,16.50
2014,08,20,01,46,16.50
2014,08,20,01,47,16.50
2014,08,20,01,48,16.50
2014,08,20,01,49,16.50
2014,08,20,01,50,16.50
2014,08,20,01,51,16.50
2014,08,20,01,52,16.50
2014,08,20,01,53,16.50
2014,08,20,01,54,16.40
2014,08,20,01,55,16.40
2014,08,20,01,56,16.40
2014,08,20,01,57,16.40
2014,08,20,01,58,16.40
2014,08,20,01,59,16.40
2014,08,20,02,00,16.40
2014,08,20,02,01,16.40
2014,08,20,02,02,16.40
2014,08,20,02,03,16.40
2014,08,20,02,04,16.40
2014,08,20,02,05,16.40
2014,08,20,02,06,16.40
2014,08,20,02,07,16.40
2014,08,20,02,08,16.40
2014,08,20,02,09,16.40
2014,08,20,02,10,16.40
2014,08,20,02,11,16.40
2014,08,20,02,12,16.40
2014,08,20,02,13,16.40
2014,08,20,02,14,16.40
2014,08,20,02,15,16.40
2014,08,20,02,16,16.40
2014,08,20,02,17,16.40
2014,08,20,02,18,16.40
2014,08,20,02,19,16.40
2014,08,20,02,20,16.40
2014,08,20,02,21,16.40
2014,08,20,02,22,16.40
2014,08,20,02,23,16.40
2014,08,20,02,24,16.50
2014,08,20,02,25,16.50
2014,08,20,02,26,16.50
2014,08,20,02,27,16.50
2014,08,20,02,28,16.50
2014,08,20,02,29,16.50
2014,08,20,02,30,16.50
2014,08,20,02,31,16.50
2014,08,20,02,32,16.50
2014,08,20,02,33,16.50
2014,08,20,02,34,16.50
2014,08,20,02,35,16.50
2014,08,20,02,36,16.50
2014,08,20,02,37,16.50
2014,08,20,02,38,16.50
2014,08,20,02,39,16.50
2014,08,20,02,40,16.50
2014,08,20,02,41,16.50
2014,08,20,02,42,16.50
2014,08,20,02,43,16.50
2014,08,20,02,44,16.50
2014,08,20,02,45,16.50
2014,08,20,02,46,16.50
2014,08,20,02,47,16.50
2014,08,20,02,48,16.50
2014,08,20,02,49,16.40
2014,08,20,02,50,16.40
2014,08,20,02,51,16.40
2014,08,20,02,52,16.40
2014,08,20,02,53,16.40
2014,08,20,02,54,16.40
2014,08,20,02,55,16.40
2014,08,20,02,56,16.40
2014,08,20,02,57,16.40
2014,08,20,02,58,16.40
2014,08,20,02,59,16.40
2014,08,20,03,00,16.40
2014,08,20,03,01,16.40
2014,08,20,03,02,16.40
2014,08,20,03,03,16.40
2014,08,20,03,04,16.40
2014,08,20,03,05,16.40
2014,08,20,03,06,16.40
2014,08,20,03,07,16.40
2014,08,20,03,08,16.30
2014,08,20,03,09,16.30
2014,08,20,03,10,16.30
2014,08,20,03,11,16.30
2014,08,20,03,12,16.30
2014,08,20,03,13,16.30
2014,08,20,03,14,16.30
2014,08,20,03,15,16.30
2014,08,20,03,16,16.30
2014,08,20,03,17,16.30
2014,08,20,03,18,16.30
2014,08,20,03,19,16.30
2014,08,20,03,20,16.30
2014,08,20,03,21,16.30
2014,08,20,03,22,16.30
2014,08,20,03,23,16.30
2014,08,20,03,24,16.30
2014,08,20,03,25,16.30
2014,08,20,03,26,16.30
2014,08,20,03,27,16.30
2014,08,20,03,28,16.30
2014,08,20,03,29,16.30
2014,08,20,03,30,16.30
2014,08,20,03,31,16.30
2014,08,20,03,32,16.30
2014,08,20,03,33,16.30
2014,08,20,03,34,16.30
2014,08,20,03,35,16.30
2014,08,20,03,36,16.30
2014,08,20,03,37,16.30
2014,08,20,03,38,16.30
2014,08,20,03,39,16.30
2014,08,20,03,40,16.30
2014,08,20,03,41,16.30
2014,08,20,03,42,16.20
2014,08,20,03,43,16.20
2014,08,20,03,44,16.20
2014,08,20,03,45,16.20
2014,08,20,03,46,16.20
2014,08,20,03,47,16.20
2014,08,20,03,48,16.20
2014,08,20,03,49,16.20
2014,08,20,03,50,16.20
2014,08,20,03,51,16.20
2014,08,20,03,52,16.20
2014,08,20,03,53,16.20
2014,08,20,03,54,16.20
2014,08,20,03,55,16.20
2014,08,20,03,56,16.20
2014,08,20,03,57,16.20
2014,08,20,03,58,16.20
2014,08,20,03,59,16.10
2014,08,20,04,00,16.10
2014,08,20,04,01,16.10
2014,08,20,04,02,16.10
2014,08,20,04,03,16.10
2014,08,20,04,04,16.10
2014,08,20,04,05,16.10
2014,08,20,04,06,16.10
2014,08,20,04,07,16.10
2014,08,20,04,08,16.10
2014,08,20,04,09,16.10
2014,08,20,04,10,16.10
2014,08,20,04,11,16.10
2014,08,20,04,12,16.10
2014,08,20,04,13,16.10
2014,08,20,04,14,16.10
2014,08,20,04,15,16.00
2014,08,20,04,16,16.00
2014,08,20,04,17,16.00
2014,08,20,04,18,16.00
2014,08,20,04,19,16.00
2014,08,20,04,20,16.00
2014,08,20,04,21,16.00
2014,08,20,04,22,16.00
2014,08,20,04,23,16.00
2014,08,20,04,24,16.00
2014,08,20,04,25,16.00
2014,08,20,04,26,15.90
2014,08,20,04,27,15.90
2014,08,20,04,28,16.00
2014,08,20,04,29,16.00
2014,08,20,04,30,16.00
2014,08,20,04,31,16.00
2014,08,20,04,32,16.00
2014,08,20,04,33,16.00
2014,08,20,04,34,15.90
2014,08,20,04,35,15.90
2014,08,20,04,36,15.90
2014,08,20,04,37,15.90
2014,08,20,04,38,15.90
2014,08,20,04,39,15.90
2014,08,20,04,40,15.90
2014,08,20,04,41,15.90
2014,08,20,04,42,15.90
2014,08,20,04,43,15.90
2014,08,20,04,44,15.90
2014,08,20,04,45,15.90
2014,08,20,04,46,15.90
2014,08,20,04,47,15.90
2014,08,20,04,48,15.90
2014,08,20,04,49,15.90
2014,08,20,04,50,15.90
2014,08,20,04,51,15.90
2014,08,20,04,52,15.90
2014,08,20,04,53,15.90
2014,08,20,04,54,15.90
2014,08,20,04,55,15.90
2014,08,20,04,56,15.90
2014,08,20,04,57,15.90
2014,08,20,04,58,15.90
2014,08,20,04,59,15.90
2014,08,20,05,00,15.90
2014,08,20,05,01,15.90
2014,08,20,05,02,15.90
2014,08,20,05,03,15.90
2014,08,20,05,04,15.90
2014,08,20,05,05,15.90
2014,08,20,05,06,15.90
2014,08,20,05,07,15.90
2014,08,20,05,08,15.90
2014,08,20,05,09,15.90
2014,08,20,05,10,15.90
2014,08,20,05,11,15.90
2014,08,20,05,12,15.90
2014,08,20,05,13,15.90
2014,08,20,05,14,15.90
2014,08,20,05,15,15.90
2014,08,20,05,16,15.90
2014,08,20,05,17,15.90
2014,08,20,05,18,15.90
2014,08,20,05,19,15.90
2014,08,20,05,20,15.90
2014,08,20,05,21,15.90
2014,08,20,05,22,15.90
2014,08,20,05,23,15.90
2014,08,20,05,24,15.90
2014,08,20,05,25,15.90
2014,08,20,05,26,15.90
2014,08,20,05,27,15.90
2014,08,20,05,28,15.90
2014,08,20,05,29,15.90
2014,08,20,05,30,15.90
2014,08,20,05,31,15.90
2014,08,20,05,32,15.80
2014,08,20,05,33,15.80
2014,08,20,05,34,15.80
2014,08,20,05,35,15.80
2014,08,20,05,36,15.80
2014,08,20,05,37,15.80
2014,08,20,05,38,15.80
2014,08,20,05,39,15.80
2014,08,20,05,40,15.80
2014,08,20,05,41,15.80
2014,08,20,05,42,15.80
2014,08,20,05,43,15.80
2014,08,20,05,44,15.80
2014,08,20,05,45,15.80
2014,08,20,05,46,15.80
2014,08,20,05,47,15.80
2014,08,20,05,48,15.80
2014,08,20,05,49,15.80
2014,08,20,05,50,15.90
2014,08,20,05,51,15.90
2014,08,20,05,52,15.90
2014,08,20,05,53,15.90
2014,08,20,05,54,15.90
2014,08,20,05,55,15.90
2014,08,20,05,56,15.90
2014,08,20,05,57,15.90
2014,08,20,05,58,15.90
2014,08,20,05,59,15.90
2014,08,20,06,00,15.90
2014,08,20,06,01,15.80
2014,08,20,06,02,15.80
2014,08,20,06,03,15.80
2014,08,20,06,04,15.80
2014,08,20,06,05,15.80
2014,08,20,06,06,15.80
2014,08,20,06,07,15.80
2014,08,20,06,08,15.80
2014,08,20,06,09,15.90
2014,08,20,06,10,15.80
2014,08,20,06,11,15.80
2014,08,20,06,12,15.80
2014,08,20,06,13,15.80
2014,08,20,06,14,15.80
2014,08,20,06,15,15.80
2014,08,20,06,16,15.90
2014,08,20,06,17,15.80
2014,08,20,06,18,15.80
2014,08,20,06,19,15.80
2014,08,20,06,20,15.80
2014,08,20,06,21,15.80
2014,08,20,06,22,15.80
2014,08,20,06,23,15.80
2014,08,20,06,24,15.80
2014,08,20,06,25,15.80
2014,08,20,06,26,15.70
2014,08,20,06,27,15.70
2014,08,20,06,28,15.70
2014,08,20,06,29,15.60
2014,08,20,06,30,15.60
2014,08,20,06,31,15.50
2014,08,20,06,32,15.50
2014,08,20,06,33,15.40
2014,08,20,06,34,15.40
2014,08,20,06,35,15.30
2014,08,20,06,36,15.30
2014,08,20,06,37,15.30
2014,08,20,06,38,15.20
2014,08,20,06,39,15.20
2014,08,20,06,40,15.20
2014,08,20,06,41,15.20
2014,08,20,06,42,15.10
2014,08,20,06,43,15.10
2014,08,20,06,44,15.10
2014,08,20,06,45,15.10
2014,08,20,06,46,15.10
2014,08,20,06,47,15.10
2014,08,20,06,48,15.10
2014,08,20,06,49,15.10
2014,08,20,06,50,15.10
2014,08,20,06,51,15.10
2014,08,20,06,52,15.10
2014,08,20,06,53,15.00
2014,08,20,06,54,15.00
2014,08,20,06,55,15.00
2014,08,20,06,56,15.00
2014,08,20,06,57,15.00
2014,08,20,06,58,15.00
2014,08,20,06,59,15.00
2014,08,20,07,00,15.00
2014,08,20,07,01,15.00
2014,08,20,07,02,15.00
2014,08,20,07,03,15.00
2014,08,20,07,04,15.00
2014,08,20,07,05,15.00
2014,08,20,07,06,15.00
2014,08,20,07,07,15.00
2014,08,20,07,08,15.00
2014,08,20,07,09,15.00
2014,08,20,07,10,15.00
2014,08,20,07,11,15.00
2014,08,20,07,12,15.00
2014,08,20,07,13,15.00
2014,08,20,07,14,15.10
2014,08,20,07,15,15.10
2014,08,20,07,16,15.10
2014,08,20,07,17,15.10
2014,08,20,07,18,15.10
2014,08,20,07,19,15.10
2014,08,20,07,20,15.10
2014,08,20,07,21,15.10
2014,08,20,07,22,15.10
2014,08,20,07,23,15.10
2014,08,20,07,24,15.10
2014,08,20,07,25,15.10
2014,08,20,07,26,15.10
2014,08,20,07,27,15.10
2014,08,20,07,28,15.10
2014,08,20,07,29,15.10
2014,08,20,07,30,15.10
2014,08,20,07,31,15.10
2014,08,20,07,32,15.10
2014,08,20,07,33,15.20
2014,08,20,07,34,15.20
2014,08,20,07,35,15.20
2014,08,20,07,36,15.20
2014,08,20,07,37,15.20
2014,08,20,07,38,15.20
2014,08,20,07,39,15.20
2014,08,20,07,40,15.20
2014,08,20,07,41,15.20
2014,08,20,07,42,15.30
2014,08,20,07,43,15.30
2014,08,20,07,44,15.30
2014,08,20,07,45,15.30
2014,08,20,07,46,15.30
2014,08,20,07,47,15.30
2014,08,20,07,48,15.30
2014,08,20,07,49,15.30
2014,08,20,07,50,15.30
2014,08,20,07,51,15.30
2014,08,20,07,52,15.40
2014,08,20,07,53,15.40
2014,08,20,07,54,15.40
2014,08,20,07,55,15.40
2014,08,20,07,56,15.40
2014,08,20,07,57,15.40
2014,08,20,07,58,15.40
2014,08,20,07,59,15.50
2014,08,20,08,00,15.50
2014,08,20,08,01,15.50
2014,08,20,08,02,15.60
2014,08,20,08,03,15.60
2014,08,20,08,04,15.60
2014,08,20,08,05,15.60
2014,08,20,08,06,15.60
2014,08,20,08,07,15.60
2014,08,20,08,08,15.70
2014,08,20,08,09,15.70
2014,08,20,08,10,15.70
2014,08,20,08,11,15.70
2014,08,20,08,12,15.70
2014,08,20,08,13,15.70
2014,08,20,08,14,15.80
2014,08,20,08,15,15.80
2014,08,20,08,16,15.80
2014,08,20,08,17,15.80
2014,08,20,08,18,15.80
2014,08,20,08,19,15.90
2014,08,20,08,20,15.90
2014,08,20,08,21,15.90
2014,08,20,08,22,15.90
2014,08,20,08,23,16.00
2014,08,20,08,24,16.00
2014,08,20,08,25,16.00
2014,08,20,08,26,16.00
2014,08,20,08,27,16.00
2014,08,20,08,28,16.00
2014,08,20,08,29,16.00
2014,08,20,08,30,16.00
2014,08,20,08,31,16.00
2014,08,20,08,32,16.10
2014,08,20,08,33,16.10
2014,08,20,08,34,16.10
2014,08,20,08,35,16.20
2014,08,20,08,36,16.20
2014,08,20,08,37,16.30
2014,08,20,08,38,16.30
2014,08,20,08,39,16.40
2014,08,20,08,40,16.50
2014,08,20,08,41,16.60
2014,08,20,08,42,16.60
2014,08,20,08,43,16.70
2014,08,20,08,44,16.70
2014,08,20,08,45,16.80
2014,08,20,08,46,16.80
2014,08,20,08,47,16.80
2014,08,20,08,48,16.80
2014,08,20,08,49,16.80
2014,08,20,08,50,16.80
2014,08,20,08,51,16.80
2014,08,20,08,52,16.80
2014,08,20,08,53,16.80
2014,08,20,08,54,16.80
2014,08,20,08,55,16.80
2014,08,20,08,56,16.70
2014,08,20,08,57,16.70
2014,08,20,08,58,16.70
2014,08,20,08,59,16.60
2014,08,20,09,00,16.50
2014,08,20,09,01,16.50
2014,08,20,09,02,16.40
2014,08,20,09,03,16.30
2014,08,20,09,04,16.30
2014,08,20,09,05,16.20
2014,08,20,09,06,16.10
2014,08,20,09,07,16.10
2014,08,20,09,08,16.10
2014,08,20,09,09,16.10
2014,08,20,09,10,16.10
2014,08,20,09,11,16.10
2014,08,20,09,12,16.10
2014,08,20,09,13,16.10
2014,08,20,09,14,16.00
2014,08,20,09,15,16.00
2014,08,20,09,16,16.00
2014,08,20,09,17,16.00
2014,08,20,09,18,16.00
2014,08,20,09,19,15.90
2014,08,20,09,20,15.90
2014,08,20,09,21,15.90
2014,08,20,09,22,16.00
2014,08,20,09,23,16.00
2014,08,20,09,24,16.10
2014,08,20,09,25,16.10
2014,08,20,09,26,16.10
2014,08,20,09,27,16.10
2014,08,20,09,28,16.10
2014,08,20,09,29,16.10
2014,08,20,09,30,16.10
2014,08,20,09,31,16.00
2014,08,20,09,32,16.00
2014,08,20,09,33,16.00
2014,08,20,09,34,16.00
2014,08,20,09,35,16.10
2014,08,20,09,36,16.20
2014,08,20,09,37,16.30
2014,08,20,09,38,16.40
2014,08,20,09,39,16.50
2014,08,20,09,40,16.50
2014,08,20,09,41,16.60
2014,08,20,09,42,16.60
2014,08,20,09,43,16.60
2014,08,20,09,44,16.70
2014,08,20,09,45,16.70
2014,08,20,09,46,16.80
2014,08,20,09,47,16.80
2014,08,20,09,48,16.80
2014,08,20,09,49,16.80
2014,08,20,09,50,16.80
2014,08,20,09,51,16.80
2014,08,20,09,52,16.90
2014,08,20,09,53,16.90
2014,08,20,09,54,16.90
2014,08,20,09,55,16.90
2014,08,20,09,56,16.80
2014,08,20,09,57,16.80
2014,08,20,09,58,16.70
2014,08,20,09,59,16.70
2014,08,20,10,00,16.60
2014,08,20,10,01,16.60
2014,08,20,10,02,16.60
2014,08,20,10,03,16.70
2014,08,20,10,04,16.70
2014,08,20,10,05,16.80
2014,08,20,10,06,16.80
2014,08,20,10,07,16.80
2014,08,20,10,08,16.70
2014,08,20,10,09,16.70
2014,08,20,10,10,16.60
2014,08,20,10,11,16.60
2014,08,20,10,12,16.60
2014,08,20,10,13,16.60
2014,08,20,10,14,16.60
2014,08,20,10,15,16.60
2014,08,20,10,16,16.60
2014,08,20,10,17,16.60
2014,08,20,10,18,16.60
2014,08,20,10,19,16.60
2014,08,20,10,20,16.50
2014,08,20,10,21,16.40
2014,08,20,10,22,16.40
2014,08,20,10,23,16.30
2014,08,20,10,24,16.20
2014,08,20,10,25,16.20
2014,08,20,10,26,16.20
2014,08,20,10,27,16.20
2014,08,20,10,28,16.20
2014,08,20,10,29,16.20
2014,08,20,10,30,16.20
2014,08,20,10,31,16.10
2014,08,20,10,32,16.10
2014,08,20,10,33,16.00
2014,08,20,10,34,16.10
2014,08,20,10,35,16.10
2014,08,20,10,36,16.20
2014,08,20,10,37,16.40
2014,08,20,10,38,16.50
2014,08,20,10,39,16.60
2014,08,20,10,40,16.70
2014,08,20,10,41,16.80
2014,08,20,10,42,16.80
2014,08,20,10,43,16.90
2014,08,20,10,44,16.90
2014,08,20,10,45,16.90
2014,08,20,10,46,17.00
2014,08,20,10,47,17.10
2014,08,20,10,48,17.10
2014,08,20,10,49,17.20
2014,08,20,10,50,17.20
2014,08,20,10,51,17.20
2014,08,20,10,52,17.20
2014,08,20,10,53,17.20
2014,08,20,10,54,17.20
2014,08,20,10,55,17.20
2014,08,20,10,56,17.20
2014,08,20,10,57,17.20
2014,08,20,10,58,17.10
2014,08,20,10,59,17.10
2014,08,20,11,00,17.20
2014,08,20,11,01,17.20
2014,08,20,11,02,17.10
2014,08,20,11,03,17.10
2014,08,20,11,04,17.10
2014,08,20,11,05,17.10
2014,08,20,11,06,17.20
2014,08,20,11,07,17.20
2014,08,20,11,08,17.20
2014,08,20,11,09,17.20
2014,08,20,11,10,17.20
2014,08,20,11,11,17.20
2014,08,20,11,12,17.20
2014,08,20,11,13,17.30
2014,08,20,11,14,17.30
2014,08,20,11,15,17.30
2014,08,20,11,16,17.30
2014,08,20,11,17,17.40
2014,08,20,11,18,17.50
2014,08,20,11,19,17.50
2014,08,20,11,20,17.60
2014,08,20,11,21,17.60
2014,08,20,11,22,17.50
2014,08,20,11,23,17.40
2014,08,20,11,24,17.40
2014,08,20,11,25,17.30
2014,08,20,11,26,17.30
2014,08,20,11,27,17.30
2014,08,20,11,28,17.40
2014,08,20,11,29,17.40
2014,08,20,11,30,17.50
2014,08,20,11,31,17.40
2014,08,20,11,32,17.40
2014,08,20,11,33,17.30
2014,08,20,11,34,17.30
2014,08,20,11,35,17.30
2014,08,20,11,36,17.30
2014,08,20,11,37,17.40
2014,08,20,11,38,17.50
2014,08,20,11,39,17.60
2014,08,20,11,40,17.60
2014,08,20,11,41,17.50
2014,08,20,11,42,17.40
2014,08,20,11,43,17.30
2014,08,20,11,44,17.20
2014,08,20,11,45,17.10
2014,08,20,11,46,17.10
2014,08,20,11,47,17.10
2014,08,20,11,48,17.10
2014,08,20,11,49,17.10
2014,08,20,11,50,17.10
2014,08,20,11,51,17.10
2014,08,20,11,52,17.10
2014,08,20,11,53,17.10
2014,08,20,11,54,17.10
2014,08,20,11,55,17.10
2014,08,20,11,56,17.10
2014,08,20,11,57,17.20
2014,08,20,11,58,17.20
2014,08,20,11,59,17.30
2014,08,20,12,00,17.30
2014,08,20,12,01,17.40
2014,08,20,12,02,17.50
2014,08,20,12,03,17.50
2014,08,20,12,04,17.60
2014,08,20,12,05,17.60
2014,08,20,12,06,17.60
2014,08,20,12,07,17.60
2014,08,20,12,08,17.60
2014,08,20,12,09,17.70
2014,08,20,12,10,17.80
2014,08,20,12,11,17.70
2014,08,20,12,12,17.70
2014,08,20,12,13,17.70
2014,08,20,12,14,17.70
2014,08,20,12,15,17.70
2014,08,20,12,16,17.80
2014,08,20,12,17,17.80
2014,08,20,12,18,17.90
2014,08,20,12,19,17.90
2014,08,20,12,20,17.90
2014,08,20,12,21,17.90
2014,08,20,12,22,17.90
2014,08,20,12,23,17.90
2014,08,20,12,24,17.90
2014,08,20,12,25,17.90
2014,08,20,12,26,17.90
2014,08,20,12,27,17.80
2014,08,20,12,28,17.80
2014,08,20,12,29,17.70
2014,08,20,12,30,17.70
2014,08,20,12,31,17.60
2014,08,20,12,32,17.50
2014,08,20,12,33,17.40
2014,08,20,12,34,17.40
2014,08,20,12,35,17.40
2014,08,20,12,36,17.40
2014,08,20,12,37,17.50
2014,08,20,12,38,17.60
2014,08,20,12,39,17.60
2014,08,20,12,40,17.60
2014,08,20,12,41,17.60
2014,08,20,12,42,17.60
2014,08,20,12,43,17.60
2014,08,20,12,44,17.60
2014,08,20,12,45,17.60
2014,08,20,12,46,17.60
2014,08,20,12,47,17.60
2014,08,20,12,48,17.60
2014,08,20,12,49,17.60
2014,08,20,12,50,17.60
2014,08,20,12,51,17.60
2014,08,20,12,52,17.60
2014,08,20,12,53,17.70
2014,08,20,12,54,17.80
2014,08,20,12,55,17.80
2014,08,20,12,56,18.00
2014,08,20,12,57,18.10
2014,08,20,12,58,18.30
2014,08,20,12,59,18.40
2014,08,20,13,00,18.50
2014,08,20,13,01,18.60
2014,08,20,13,02,18.60
2014,08,20,13,03,18.60
2014,08,20,13,04,18.60
2014,08,20,13,05,18.50
2014,08,20,13,06,18.40
2014,08,20,13,07,18.40
2014,08,20,13,08,18.30
2014,08,20,13,09,18.20
2014,08,20,13,10,18.20
2014,08,20,13,11,18.20
2014,08,20,13,12,18.20
2014,08,20,13,13,18.20
2014,08,20,13,14,18.30
2014,08,20,13,15,18.30
2014,08,20,13,16,18.40
2014,08,20,13,17,18.40
2014,08,20,13,18,18.30
2014,08,20,13,19,18.20
2014,08,20,13,20,18.20
2014,08,20,13,21,18.20
2014,08,20,13,22,18.20
2014,08,20,13,23,18.20
2014,08,20,13,24,18.20
2014,08,20,13,25,18.20
2014,08,20,13,26,18.20
2014,08,20,13,27,18.30
2014,08,20,13,28,18.30
2014,08,20,13,29,18.30
2014,08,20,13,30,18.40
2014,08,20,13,31,18.40
2014,08,20,13,32,18.40
2014,08,20,13,33,18.40
2014,08,20,13,34,18.50
2014,08,20,13,35,18.50
2014,08,20,13,36,18.50
2014,08,20,13,37,18.50
2014,08,20,13,38,18.50
2014,08,20,13,39,18.50
2014,08,20,13,40,18.60
2014,08,20,13,41,18.60
2014,08,20,13,42,18.50
2014,08,20,13,43,18.50
2014,08,20,13,44,18.40
2014,08,20,13,45,18.30
2014,08,20,13,46,18.20
2014,08,20,13,47,18.20
2014,08,20,13,48,18.20
2014,08,20,13,49,18.20
2014,08,20,13,50,18.30
2014,08,20,13,51,18.30
2014,08,20,13,52,18.30
2014,08,20,13,53,18.30
2014,08,20,13,54,18.30
2014,08,20,13,55,18.30
2014,08,20,13,56,18.20
2014,08,20,13,57,18.20
2014,08,20,13,58,18.20
2014,08,20,13,59,18.10
2014,08,20,14,00,18.10
2014,08,20,14,01,18.10
2014,08,20,14,02,18.10
2014,08,20,14,03,18.10
2014,08,20,14,04,18.10
2014,08,20,14,05,18.10
2014,08,20,14,06,18.10
2014,08,20,14,07,18.20
2014,08,20,14,08,18.30
2014,08,20,14,09,18.40
2014,08,20,14,10,18.40
2014,08,20,14,11,18.50
2014,08,20,14,12,18.50
2014,08,20,14,13,18.60
2014,08,20,14,14,18.60
2014,08,20,14,15,18.60
2014,08,20,14,16,18.60
2014,08,20,14,17,18.60
2014,08,20,14,18,18.60
2014,08,20,14,19,18.70
2014,08,20,14,20,18.60
2014,08,20,14,21,18.60
2014,08,20,14,22,18.60
2014,08,20,14,23,18.60
2014,08,20,14,24,18.50
2014,08,20,14,25,18.50
2014,08,20,14,26,18.50
2014,08,20,14,27,18.50
2014,08,20,14,28,18.40
2014,08,20,14,29,18.40
2014,08,20,14,30,18.30
2014,08,20,14,31,18.30
2014,08,20,14,32,18.30
2014,08,20,14,33,18.30
2014,08,20,14,34,18.30
2014,08,20,14,35,18.30
2014,08,20,14,36,18.30
2014,08,20,14,37,18.30
2014,08,20,14,38,18.40
2014,08,20,14,39,18.50
2014,08,20,14,40,18.60
2014,08,20,14,41,18.60
2014,08,20,14,42,18.60
2014,08,20,14,43,18.60
2014,08,20,14,44,18.60
2014,08,20,14,45,18.60
2014,08,20,14,46,18.60
2014,08,20,14,47,18.70
2014,08,20,14,48,18.70
2014,08,20,14,49,18.70
2014,08,20,14,50,18.80
2014,08,20,14,51,18.80
2014,08,20,14,52,18.90
2014,08,20,14,53,19.00
2014,08,20,14,54,19.00
2014,08,20,14,55,19.10
2014,08,20,14,56,19.10
2014,08,20,14,57,19.20
2014,08,20,14,58,19.20
2014,08,20,14,59,19.30
2014,08,20,15,00,19.30
2014,08,20,15,01,19.40
2014,08,20,15,02,19.40
2014,08,20,15,03,19.40
2014,08,20,15,04,19.40
2014,08,20,15,05,19.40
2014,08,20,15,06,19.40
2014,08,20,15,07,19.40
2014,08,20,15,08,19.40
2014,08,20,15,09,19.50
2014,08,20,15,10,19.60
2014,08,20,15,11,19.60
2014,08,20,15,12,19.60
2014,08,20,15,13,19.60
2014,08,20,15,14,19.70
2014,08,20,15,15,19.70
2014,08,20,15,16,19.70
2014,08,20,15,17,19.70
2014,08,20,15,18,19.70
2014,08,20,15,19,19.70
2014,08,20,15,20,19.70
2014,08,20,15,21,19.70
2014,08,20,15,22,19.70
2014,08,20,15,23,19.70
2014,08,20,15,24,19.70
2014,08,20,15,25,19.80
2014,08,20,15,26,19.90
2014,08,20,15,27,19.90
2014,08,20,15,28,19.90
2014,08,20,15,29,19.90
2014,08,20,15,30,19.90
2014,08,20,15,31,20.00
2014,08,20,15,32,20.20
2014,08,20,15,33,20.30
2014,08,20,15,34,20.30
2014,08,20,15,35,20.40
2014,08,20,15,36,20.50
2014,08,20,15,37,20.60
2014,08,20,15,38,20.60
2014,08,20,15,39,20.60
2014,08,20,15,40,20.70
2014,08,20,15,41,20.70
2014,08,20,15,42,20.70
2014,08,20,15,43,20.70
2014,08,20,15,44,20.60
2014,08,20,15,45,20.60
2014,08,20,15,46,20.50
2014,08,20,15,47,20.60
2014,08,20,15,48,20.60
2014,08,20,15,49,20.60
2014,08,20,15,50,20.60
2014,08,20,15,51,20.50
2014,08,20,15,52,20.50
2014,08,20,15,53,20.50
2014,08,20,15,54,20.50
2014,08,20,15,55,20.50
2014,08,20,15,56,20.60
2014,08,20,15,57,20.60
2014,08,20,15,58,20.70
2014,08,20,15,59,20.70
2014,08,20,16,00,20.70
2014,08,20,16,01,20.70
2014,08,20,16,02,20.70
2014,08,20,16,03,20.60
2014,08,20,16,04,20.60
2014,08,20,16,05,20.60
2014,08,20,16,06,20.70
2014,08,20,16,07,20.60
2014,08,20,16,08,20.60
2014,08,20,16,09,20.50
2014,08,20,16,10,20.40
2014,08,20,16,11,20.30
2014,08,20,16,12,20.30
2014,08,20,16,13,20.30
2014,08,20,16,14,20.30
2014,08,20,16,15,20.30
2014,08,20,16,16,20.40
2014,08,20,16,17,20.40
2014,08,20,16,18,20.30
2014,08,20,16,19,20.30
2014,08,20,16,20,20.20
2014,08,20,16,21,20.20
2014,08,20,16,22,20.10
2014,08,20,16,23,20.00
2014,08,20,16,24,20.00
2014,08,20,16,25,20.00
2014,08,20,16,26,20.10
2014,08,20,16,27,20.10
2014,08,20,16,28,20.10
2014,08,20,16,29,20.20
2014,08,20,16,30,20.20
2014,08,20,16,31,20.20
2014,08,20,16,32,20.20
2014,08,20,16,33,20.20
2014,08,20,16,34,20.20
2014,08,20,16,35,20.20
2014,08,20,16,36,20.20
2014,08,20,16,37,20.20
2014,08,20,16,38,20.20
2014,08,20,16,39,20.20
2014,08,20,16,40,20.20
2014,08,20,16,41,20.20
2014,08,20,16,42,20.20
2014,08,20,16,43,20.20
2014,08,20,16,44,20.20
2014,08,20,16,45,20.30
2014,08,20,16,46,20.30
2014,08,20,16,47,20.30
2014,08,20,16,48,20.40
2014,08,20,16,49,20.40
2014,08,20,16,50,20.30
2014,08,20,16,51,20.30
2014,08,20,16,52,20.40
2014,08,20,16,53,20.40
2014,08,20,16,54,20.50
2014,08,20,16,55,20.60
2014,08,20,16,56,20.50
2014,08,20,16,57,20.50
2014,08,20,16,58,20.40
2014,08,20,16,59,20.40
2014,08,20,17,00,20.30
2014,08,20,17,01,20.20
2014,08,20,17,02,20.10
2014,08,20,17,03,20.00
2014,08,20,17,04,19.90
2014,08,20,17,05,19.90
2014,08,20,17,06,19.90
2014,08,20,17,07,19.90
2014,08,20,17,08,19.90
2014,08,20,17,09,19.80
2014,08,20,17,10,19.70
2014,08,20,17,11,19.60
2014,08,20,17,12,19.60
2014,08,20,17,13,19.50
2014,08,20,17,14,19.40
2014,08,20,17,15,19.40
2014,08,20,17,16,19.30
2014,08,20,17,17,19.30
2014,08,20,17,18,19.20
2014,08,20,17,19,19.30